User: anonymous   Login
Location: Niverville
(49.6028°N, 97.0419°W)
Time: 21:17:43
(UTC-05:00)
Language:

Cosmos 2237 Rocket - Orbit

View from above orbital plane
View from above orbital plane
View from above satellite
View from above satellite

Ground track
Ground track

The orbit data is extracted from the following two-line orbital elements,

1 22566U 93016B   17146.36197277 +.00000178 +00000-0 +11645-3 0  9997
2 22566 071.0069 112.7367 0010103 178.8981 181.2165 14.14949405248177
Epoch (UTC): 26 May 2017 08:41:14
Eccentricity: 0.0010103
inclination: 71.0069°
perigee height: 835 km
apogee height: 850 km
right ascension of ascending node: 112.7367°
argument of perigee: 178.8981°
revolutions per day: 14.14949405
mean anomaly at epoch: 181.2165°
orbit number at epoch: 24817

The dashed part of the orbit path shows where the satellite is in the earth's shadow,  

DLR